Regional Weather Roundup
Issued by NWS

Home | Current Version | Previous Version | Graphics & Text | Print | Product List | Glossary Off
Versions: 1 2 3 4 5 6 7 8 9 10 11 12 13 14 15 16 17 18 19 20 21 22 23 24 25 26 27 28 29 30 31 32 33 34 35 36 37 38 39 40 41 42 43 44 45 46 47 48 49 50

000
ASUS43 KMPX 200401
RWRMN
WEATHER ROUNDUP FOR MINNESOTA
NATIONAL WEATHER SERVICE TWIN CITIES/CHANHASSEN MN
1000 PM CST FRI JAN 19 2018


NOTE: "FAIR" INDICATES FEW OR NO CLOUDS BELOW 12,000 FEET WITH NO
SIGNIFICANT WEATHER AND/OR OBSTRUCTIONS TO VISIBILITY. N/A MEANS
CURRENT SKY AND/OR WEATHER CONDITIONS ARE NOT AVAILABLE.

MNZ060>063-068>070-200500-
   Twin Cities Metro

CITY           SKY/WX    TMP DP  RH WIND       PRES   REMARKS
TWIN CITIES    MOCLDY    38  32  79 W3        29.66R
ST PAUL        FAIR      35  31  85 CALM      29.67R
CRYSTAL        FAIR      37  27  67 W5        29.64R
BLAINE         FAIR      37  30  75 SW3       29.65R
LAKEVILLE      FAIR      36  30  80 W9        29.66R
EDEN PRAIRIE   FAIR      37  30  75 SW5       29.65R
SOUTH ST PAUL  FAIR      38  31  75 NW3       29.65R
LAKE ELMO      FAIR      36  32  87 W5        29.65S
$$
MNZ001>005-007-008-013>017-022>024-027-028-200500-
   Northwest Minnesota

CITY           SKY/WX    TMP DP  RH WIND       PRES   REMARKS
BEMIDJI        FAIR      30  28  91 W6        29.61R WCI  24
HALLOCK        FAIR      21  19  93 SW12      29.60R WCI   9
ROSEAU         FAIR      30  27  86 SW6       29.57R WCI  24
WARROAD        CLOUDY    36  30  80 SW9       29.56R
CROOKSTON      FAIR      34  28  80 W13       29.64R WCI  25
FOSSTON        FAIR      27  25  93 SW8       29.64R WCI  18
DETROIT LAKES  FAIR      34  30  86 W10       29.67R WCI  26
MOORHEAD       FAIR      32  27  80 W9        29.69R WCI  24
PARK RAPIDS    FAIR      31  27  85 W10       29.63R WCI  22
MAHNOMEN       FAIR      27  25  92 SW7       29.65R WCI  20
$$
MNZ006-009>011-018-025>026-200500-
   North Central Minnesota

CITY           SKY/WX    TMP DP  RH WIND       PRES   REMARKS
BAUDETTE       FAIR      30  28  92 NW3       29.53R
FLAG ISLAND    CLOUDY    34  28  80 W5        29.53R WCI  30
INTL FALLS     FAIR      33  27  78 W7        29.52R WCI  27
WASKISH        MOCLDY    32  30  93 SW9       29.57R WCI  24
BIG FORK       CLOUDY    36  30  80 W5        29.59R
LONGVILLE      FAIR      30  27  86 CALM      29.61S
GRAND RAPIDS   FAIR      35  29  78 W8        29.61R WCI  29
CRANE LAKE     CLOUDY    36  30  80 W6        29.53R
ORR            MOCLDY    34  27  75 W5        29.52R WCI  30
COOK             N/A     36  30  80 W16       29.55R
WALKER         FAIR      32  28  86 W8        29.62R WCI  25
$$
MNZ012-019>021-037-200500-
   Northeast Minnesota

CITY           SKY/WX    TMP DP  RH WIND       PRES   REMARKS
DULUTH         FAIR      37  29  72 NW14      29.55R
ELY            CLOUDY    36  30  80 W14       29.51R
HIBBING        FAIR      34  28  79 W7G17     29.57R WCI  28
EVELETH        CLOUDY    35  27  74 W12G17    29.58R WCI  26
DULUTH HARBOR  FAIR      39  30  70 W14G24    29.58R
TWO HARBORS    FAIR      41  30  65 W12G18    29.52R
GRAND MARAIS     N/A     39  32  76 W7        29.46R
G MARAIS ARPRT CLOUDY    34  27  75 W8        29.43R WCI  27
$$
MNZ029>031-032-039>041-046>048-054>057-064-200500-
   West Central Minnesota

CITY           SKY/WX    TMP DP  RH WIND       PRES   REMARKS
FERGUS FALLS   FAIR      27  27 100 W3        29.69R FOG
MORRIS         CLOUDY    32  28  86 NW8       29.68R WCI  25
ALEXANDRIA     FAIR      34  29  82 NW9       29.67R WCI  27
ELBOW LAKE     FAIR      29  28  94 NW6       29.69R WCI  23
WADENA         FAIR      27  25  93 W7        29.66R WCI  19
GLENWOOD       FAIR      34  30  86 W7        29.67S WCI  28
APPLETON       CLOUDY    32  28  86 SW5       29.70R WCI  27
BENSON         CLOUDY    32  28  86 NW3       29.70R
ORTONVILLE     CLOUDY    34  27  75 W6        29.70R WCI  29
MADISON        PTCLDY    36  30  80 W6        29.70R
WILLMAR        FAIR      34  30  86 NW6       29.70S WCI  29
$$
MNZ033>034-036-042>043-049>051-058-059-200500-
   Central Minnesota

CITY           SKY/WX    TMP DP  RH WIND       PRES   REMARKS
ST CLOUD       FAIR      35  30  82 W6        29.65R WCI  30
SAUK CENTRE      N/A     32  29  89 W3        29.66S
PAYNESVILLE    FAIR      33  31  94 W5        29.67S WCI  28
AITKIN         FAIR      34  27  75 W6        29.61R WCI  29
PINE RIVER     FAIR      30  27  86 W3        29.67R
BRAINERD       FAIR      36  29  75 W8        29.64R
STAPLES        FAIR      27  25  93 W8        29.65R WCI  18
LONG PRAIRIE   FAIR      32  30  93 W3        29.66R
LITTLE FALLS   FAIR      34  27  75 W6        29.66R WCI  29
LITCHFIELD     FAIR      36  32  87 W3        29.68R
BUFFALO        FAIR      35  29  79 W5        29.67R WCI  31
MAPLE LAKE     FAIR      36  31  83 MISG      29.67R
HUTCHINSON     FAIR      35  32  88 W6        29.68R WCI  30
$$
MNZ037-044-045-052-053-200500-
   East Central Minnesota

CITY           SKY/WX    TMP DP  RH WIND       PRES   REMARKS
PRINCETON      FAIR      37  30  75 SW5       29.65R
MORA           FAIR      28  25  86 CALM      29.65R
CAMBRIDGE      FAIR      37  27  65 W5        29.65R
RUSH CITY      FAIR      36  28  74 W3        29.63R
MOOSE LAKE     FAIR      37  28  70 W8        29.58R
HINCKLEY       FAIR      30  28  93 CALM      29.62R
CLOQUET        FAIR      36  27  69 W7        29.58R
MCGREGOR       FAIR      36  30  80 W6        29.62R
$$
MNZ071>073-080-081-089-090-097-098-200500-
   Southwest Minnesota

CITY           SKY/WX    TMP DP  RH WIND       PRES   REMARKS
MONTEVIDEO     CLOUDY    36  28  75 NW5       29.70R
GRANITE FALLS  MOCLDY    34  30  87 W6        29.71R WCI  29
CANBY          CLOUDY    38  30  74 SW7       29.72R
MARSHALL       CLOUDY    35  28  75 W10       29.71R WCI  27
REDWOOD FALLS  CLOUDY    34  29  82 W8        29.70R WCI  27
OLIVIA         PTCLDY    34  30  86 NW7       29.69R WCI  28
PIPESTONE      CLOUDY    30  28  93 CALM      29.71R
WINDOM         MOCLDY    37  21  52 NW9       29.70R
WORTHINGTON    PTCLDY    33  30  88 W9        29.72R WCI  25
JACKSON        CLOUDY    36  30  80 NW7       29.70R
TRACY          CLOUDY    36  31  81 W6        29.71R
SLAYTON        CLOUDY    33  30  90 W7        29.72R WCI  27
$$
MNZ065>067-074>077-082>085-091>093-200500-
   South Central Minnesota

CITY           SKY/WX    TMP DP  RH WIND       PRES   REMARKS
MANKATO        FAIR      38  31  76 NW7       29.69R
NEW ULM        PTCLDY    37  28  70 W7        29.69R
ST JAMES       CLOUDY    37  30  75 W9        29.70R
FAIRMONT       CLOUDY    39  31  72 NW13      29.70R
FARIBAULT      FAIR      37  30  75 W5        29.67R
OWATONNA       FAIR      36  30  80 W3        29.67R
WASECA         FAIR      36  32  87 W6        29.69R
ALBERT LEA     FAIR      36  30  80 W3        29.68R
$$
MNZ078>079-086>088-094>096-200500-
   Southeast Minnesota

CITY           SKY/WX    TMP DP  RH WIND       PRES   REMARKS
ROCHESTER      FAIR      33  31  92 W8        29.66R WCI  26
RED WING       FAIR      30  27  86 NW3       29.66R
STANTON        FAIR      36  31  83 SW3       29.65R
DODGE CENTER   FAIR      37  30  75 W9        29.65R
WINONA         FAIR      34  30  86 CALM      29.65R
AUSTIN         FAIR      34  28  80 SW3       29.67R
PRESTON        FAIR      35  30  82 W7        29.68R WCI  29
$$
ABBREVIATIONS USED IN REMARKS
   TC - TEMPERATURES IN CELSIUS
  WCI - WIND CHILL INDEX
   HX - HEAT INDEX
  VSB - VISIBILITY
$$




USA.gov is the U.S. government's official web portal to all federal, state and local government web resources and services.